#timestamp,LO_Frequency,Hit,StdDev 
1514116815.3,286046997.9,N
1514116835.1,286046999.2,N
1514116855.9,286046996.1,N
1514116875.7,286046999.2,N
1514116895.5,286046996.2,N
1514116915.4,286046990.5,N
1514116935.2,286046991.1,N
1514116955.0,286046990.8,N
1514116955.9,286046990.8,N
1514116975.8,286046988.1,N
1514116995.6,286046986.7,Y
1514117015.4,286046989.9,P
1514117035.3,286046988.5,N
1514117055.1,286046988.1,N
1514117056.0,286046988.1,Y
1514117075.8,286047002.7,P
1514117095.7,286047004.5,N
1514117115.5,286047008.5,N
1514117135.3,286047006.7,N
1514117155.2,286047009.7,N
1514117175.9,286047011.8,N
1514117195.7,286047014.8,N
1514117215.6,286047023.3,Y
1514117235.4,286047021.9,P
1514117255.2,286047021.0,N
1514117275.1,286047021.6,P
1514117276.0,286047021.6,Y
1514117295.8,286047008.0,P
1514117315.6,286047008.6,N
1514117335.5,286047008.6,N
1514117355.3,286047012.2,Y
1514117375.1,286047002.1,P
1514117395.9,286047003.4,N
1514117415.7,286047004.7,N
1514117435.5,286047006.9,N
1514117455.4,286047007.0,N
1514117475.2,286047007.3,N
1514117495.0,286047007.1,N
1514117495.9,286047007.1,N
1514117515.8,286047007.5,Y
1514117535.6,286047001.8,P
1514117555.4,286047001.6,N
1514117575.3,286047002.8,N
1514117595.1,286047001.2,N
1514117596.0,286047001.2,N
1514117615.8,286046998.5,N
1514117635.7,286046998.9,N
1514117655.5,286047001.0,N
1514117675.3,286046998.2,N
1514117695.2,286046999.9,N
1514117715.9,286046998.1,N
1514117735.7,286046994.6,N
1514117755.5,286046993.0,N
1514117775.4,286046994.6,N
1514117795.2,286046994.6,N
1514117815.0,286046989.6,Y
1514117815.9,286046989.6,P
1514117835.8,286046988.9,N
1514117855.6,286046987.1,N
1514117875.4,286046989.9,N
1514117895.3,286046987.9,N
1514117915.1,286046986.5,Y
1514117935.8,286046994.7,P
1514117955.7,286046992.3,P
1514117975.5,286046997.9,N
1514117995.3,286046995.8,N
1514118015.2,286046996.2,N
1514118035.0,286046993.4,N
1514118035.9,286046993.4,N
1514118055.7,286046993.0,Y
1514118075.6,286047000.7,P
1514118095.4,286046997.1,N
1514118115.2,286046995.0,N
1514118135.1,286046995.1,N
1514118136.0,286046995.1,N
1514118155.8,286046993.5,N
1514118175.6,286046992.8,Y
1514118195.5,286046995.8,P
1514118215.3,286046993.4,P
1514118235.1,286046996.2,P
1514118255.9,286046991.4,Y
1514118275.7,286046995.2,P
1514118295.5,286046996.6,P
1514118315.4,286046996.1,P
1514118335.2,286046999.6,N
1514118355.0,286046998.4,N
1514118355.9,286046998.4,N
1514118375.8,286046999.9,N
1514118395.6,286047003.9,N
1514118415.4,286047008.8,Y
1514118435.3,286047004.8,P
1514118455.1,286047005.8,N
1514118475.8,286047007.0,N
1514118495.7,286047000.6,N
1514118515.5,286046998.1,N
1514118535.3,286046996.8,N
1514118555.2,286046999.4,N
1514118575.9,286047001.5,N
1514118595.7,286046998.9,N
1514118615.5,286046997.5,N
1514118635.4,286046999.0,N
1514118655.2,286046999.3,N
1514118675.0,286046995.0,N
1514118675.9,286046995.0,N
1514118695.8,286046994.5,N
1514118715.6,286046996.8,N
1514118735.4,286046999.8,N
1514118755.3,286046997.7,N
1514118775.1,286046994.1,N
1514118776.0,286046994.1,N
1514118795.8,286046992.2,N
1514118815.7,286046995.2,N
1514118835.5,286046999.1,N
1514118855.3,286047001.3,N
1514118875.2,286047000.8,N
1514118895.9,286046995.0,N
1514118915.7,286046992.0,N
1514118935.5,286046992.3,N
1514118955.4,286046994.6,N
1514118975.2,286046992.7,N
1514118995.0,286046992.8,N
1514118995.9,286046992.8,N
1514119015.8,286046989.0,Y
1514119035.6,286046995.6,P
1514119055.4,286046993.9,P
1514119075.3,286046990.5,P
1514119095.1,286046995.7,N
1514119115.8,286046993.8,N
1514119135.7,286046994.3,N
1514119155.5,286046992.3,Y
1514119175.3,286046993.7,P
1514119195.2,286046993.9,P
1514119215.9,286046999.1,P
1514119235.7,286047000.0,N
1514119255.6,286047000.5,N
1514119275.4,286047000.7,N
1514119295.2,286046998.6,N
1514119315.1,286046998.5,N
1514119316.0,286046998.5,N
1514119335.8,286046997.1,N
1514119355.6,286046995.0,N
1514119375.5,286046997.9,N
1514119395.3,286046997.1,N
1514119415.1,286046994.0,N
1514119435.9,286046993.4,N
1514119455.7,286046992.1,Y
1514119475.5,286046993.0,P
1514119495.4,286046993.0,P
1514119515.2,286046989.9,P
1514119535.0,286046988.9,Y
1514119535.9,286046988.9,P
1514119555.8,286046999.6,N
1514119575.6,286046997.6,N
1514119595.4,286046997.1,N
1514119615.3,286046999.8,N
1514119635.1,286047002.8,N
1514119636.0,286047002.8,N
1514119655.8,286047004.3,N
1514119675.6,286047007.4,N
1514119695.5,286047007.2,N
1514119715.3,286047005.1,N
1514119735.1,286047002.1,N
1514119755.9,286047001.8,N
1514119775.7,286047005.6,N
1514119795.5,286047006.5,N
1514119815.4,286047008.3,N
1514119835.2,286047009.5,N
1514119855.0,286047017.1,Y
1514119855.9,286047017.1,P
1514119875.8,286047012.2,N
1514119895.6,286047011.1,N
1514119915.4,286047010.9,N
1514119935.3,286047017.4,Y
1514119955.1,286047008.5,P
1514119956.0,286047008.5,P
1514119975.8,286047005.1,P
1514119995.7,286047003.3,N
1514120015.5,286047007.6,N
1514120035.3,286047008.1,Y
1514120055.2,286047006.5,P
1514120075.9,286047010.2,P
1514120095.7,286047004.9,P
1514120115.6,286047007.1,Y
1514120135.4,286046998.7,P
1514120155.2,286046995.8,N
1514120175.1,286046991.2,N
1514120176.0,286046991.2,N
1514120195.8,286046990.3,N
1514120215.6,286046987.2,N
1514120235.5,286046985.0,N
1514120255.3,286046984.0,N
1514120275.1,286046988.0,N
1514120295.8,286046988.1,N
1514120315.7,286046984.2,N
1514120335.5,286046984.2,N
1514120355.3,286046985.8,N
1514120375.2,286046985.0,N
1514120395.0,286046981.0,Y
1514120395.9,286046981.0,P
